Location: Brede
(50.9167°N, 0.6000°E)
Time: 15:34:46
(UTC+00:00)

In-Cosmos 22 - Pass Details

Date: 08 August 2020
Orbit: 784 x 877 km, 81.2° (Epoch: 22 September)

Event Time Altitude Azimuth Distance (km) Brightness Sun altitude
Rises 00:51:00 0° 347° (NNW) 3,445 8.5 -22.2°
Reaches altitude 10° 00:53:28 10° 349° (N) 2,492 7.6 -22.1°
Maximum altitude 00:59:08 79° 76° (ENE) 857 4.2 -21.9°
Enters shadow 01:01:11 40° 157° (SSE) 1,202 4.6 -21.8°
